| time (UTC) | temp C | wind direction | speed KPH | gust KPH | rain 1hr cm | rain 24hr cm | rain mn cm | humidity % | barometer mb |
| 20260507085442 | 9 | 241 | 1.6 | 3.2 | 0.00 | 0.03 | 0.03 | 79 | 1007.2 |
| 20260507084938 | 9 | 282 | 0.0 | 0.0 | 0.00 | 0.03 | 0.03 | 78 | 1007.0 |
| 20260507084435 | 10 | 273 | 0.0 | 1.6 | 0.00 | 0.03 | 0.03 | 79 | 1007.3 |
| 20260507083932 | 10 | 288 | 0.0 | 0.0 | 0.00 | 0.03 | 0.03 | 79 | 1007.4 |
| 20260507083429 | 10 | 273 | 0.0 | 0.0 | 0.00 | 0.03 | 0.03 | 79 | 1007.0 |
| 20260507082925 | 10 | 263 | 0.0 | 1.6 | 0.00 | 0.03 | 0.03 | 79 | 1007.2 |
| 20260507082421 | 10 | 266 | 1.6 | 3.2 | 0.00 | 0.03 | 0.03 | 80 | 1007.3 |
| 20260507081918 | 10 | 298 | 1.6 | 3.2 | 0.00 | 0.03 | 0.03 | 79 | 1007.1 |
| 20260507081414 | 10 | 280 | 1.6 | 3.2 | 0.13 | 0.03 | 0.03 | 80 | 1007.3 |
| 20260507080911 | 10 | 286 | 0.0 | 0.0 | 0.13 | 0.03 | 0.03 | 80 | 1007.6 |
| 20260507080407 | 10 | 259 | 0.0 | 1.6 | 0.00 | 0.00 | 0.00 | 78 | 1007.3 |
| 20260507075902 | 10 | 275 | 1.6 | 3.2 | 0.00 | 0.00 | 0.00 | 77 | 1007.2 |
| 20260507075359 | 10 | 270 | 1.6 | 1.6 | 0.00 | 0.00 | 0.00 | 76 | 1007.2 |
| 20260507074855 | 10 | 230 | 4.8 | 4.8 | 0.00 | 0.00 | 0.00 | 77 | 1007.0 |
| 20260507074353 | 10 | 246 | 1.6 | 3.2 | 0.00 | 0.00 | 0.00 | 77 | 1007.0 |
| 20260507073850 | 10 | 314 | 1.6 | 1.6 | 0.00 | 0.00 | 0.00 | 77 | 1007.0 |
| 20260507073346 | 10 | 275 | 1.6 | 1.6 | 0.00 | 0.00 | 0.00 | 77 | 1007.1 |
| 20260507072844 | 10 | 273 | 0.0 | 1.6 | 0.00 | 0.00 | 0.00 | 78 | 1006.7 |
| 20260507072341 | 10 | 313 | 1.6 | 1.6 | 0.00 | 0.00 | 0.00 | 77 | 1007.0 |
| 20260507071838 | 11 | 248 | 1.6 | 3.2 | 0.00 | 0.00 | 0.00 | 78 | 1006.7 |
| 20260507071335 | 11 | 288 | 1.6 | 3.2 | 0.00 | 0.00 | 0.00 | 79 | 1006.8 |
| 20260507070831 | 11 | 254 | 0.0 | 0.0 | 0.00 | 0.00 | 0.00 | 80 | 1006.8 |
| 20260507070329 | 11 | 325 | 0.0 | 0.0 | 0.00 | 0.00 | 0.00 | 82 | 1006.7 |
| 20260507065825 | 11 | 342 | 0.0 | 0.0 | 0.00 | 0.00 | 0.00 | 82 | 1006.8 |
| 20260507065322 | 11 | 287 | 0.0 | 1.6 | 0.00 | 0.00 | 0.00 | 82 | 1006.6 |
| 20260507064819 | 11 | 288 | 0.0 | 1.6 | 0.00 | 0.00 | 0.00 | 82 | 1006.6 |
| 20260507064318 | 11 | 280 | 0.0 | 0.0 | 0.00 | 0.00 | 0.00 | 82 | 1006.7 |
| 20260507063816 | 11 | 278 | 0.0 | 0.0 | 0.00 | 0.00 | 0.00 | 82 | 1006.5 |
| 20260507063312 | 11 | 303 | 1.6 | 3.2 | 0.00 | 0.00 | 0.00 | 82 | 1006.4 |
| 20260507062809 | 11 | 275 | 0.0 | 0.0 | 0.00 | 0.00 | 0.00 | 82 | 1006.2 |
| 20260507062306 | 11 | 275 | 0.0 | 0.0 | 0.00 | 0.00 | 0.00 | 82 | 1006.5 |
| 20260507061804 | 11 | 266 | 0.0 | 0.0 | 0.00 | 0.00 | 0.00 | 82 | 1006.5 |
| 20260507061302 | 11 | 277 | 0.0 | 0.0 | 0.00 | 0.00 | 0.00 | 82 | 1006.7 |
| 20260507060800 | 11 | 264 | 0.0 | 0.0 | 0.00 | 0.00 | 0.00 | 81 | 1006.2 |
| 20260507060256 | 11 | 274 | 0.0 | 0.0 | 0.00 | 0.00 | 0.00 | 81 | 1006.6 |
| 20260507055752 | 11 | 298 | 1.6 | 1.6 | 0.00 | 0.00 | 0.00 | 82 | 1006.5 |
| 20260507055248 | 11 | 281 | 0.0 | 0.0 | 0.00 | 0.00 | 0.00 | 83 | 1006.8 |
| 20260507054744 | 11 | 280 | 0.0 | 0.0 | 0.00 | 0.00 | 0.00 | 83 | 1006.9 |
| 20260507054241 | 11 | 263 | 1.6 | 4.8 | 0.00 | 0.00 | 0.00 | 83 | 1006.5 |
| 20260507053739 | 11 | 284 | 0.0 | 0.0 | 0.00 | 0.00 | 0.00 | 83 | 1006.5 |
| 20260507053236 | 11 | 241 | 1.6 | 3.2 | 0.00 | 0.00 | 0.00 | 83 | 1006.8 |
| 20260507052735 | 11 | 305 | 0.0 | 1.6 | 0.00 | 0.00 | 0.00 | 83 | 1006.8 |
| 20260507052231 | 11 | 294 | 0.0 | 0.0 | 0.00 | 0.00 | 0.00 | 82 | 1006.7 |
| 20260507051729 | 11 | 330 | 0.0 | 0.0 | 0.00 | 0.00 | 0.00 | 82 | 1006.8 |
| 20260507051225 | 11 | 158 | 1.6 | 8.0 | 0.00 | 0.00 | 0.00 | 83 | 1006.8 |
| 20260507050722 | 12 | 331 | 0.0 | 0.0 | 0.00 | 0.00 | 0.00 | 84 | 1006.8 |
| 20260507050219 | 12 | 277 | 0.0 | 0.0 | 0.00 | 0.00 | 0.00 | 84 | 1007.0 |
| 20260507045716 | 12 | 278 | 0.0 | 0.0 | 0.00 | 0.00 | 0.00 | 85 | 1006.8 |
| 20260507045212 | 12 | 287 | 0.0 | 0.0 | 0.00 | 0.00 | 0.00 | 85 | 1006.6 |
| 20260507044709 | 12 | 223 | 4.8 | 4.8 | 0.00 | 0.00 | 0.00 | 85 | 1006.4 |
| 20260507044206 | 12 | 289 | 0.0 | 0.0 | 0.00 | 0.00 | 0.00 | 85 | 1006.5 |
| 20260507043702 | 12 | 285 | 0.0 | 0.0 | 0.00 | 0.00 | 0.00 | 85 | 1006.5 |
| 20260507043159 | 12 | 286 | 0.0 | 1.6 | 0.00 | 0.00 | 0.00 | 86 | 1006.2 |
| 20260507042656 | 12 | 287 | 0.0 | 1.6 | 0.00 | 0.00 | 0.00 | 86 | 1006.6 |
| 20260507042150 | 13 | 291 | 0.0 | 0.0 | 0.00 | 0.00 | 0.00 | 87 | 1006.9 |
| 20260507041648 | 13 | 298 | 0.0 | 1.6 | 0.00 | 0.00 | 0.00 | 87 | 1006.6 |
| 20260507041144 | 13 | 282 | 0.0 | 0.0 | 0.00 | 0.00 | 0.00 | 90 | 1006.5 |
| 20260507040641 | 14 | 269 | 4.8 | 8.0 | 0.00 | 0.00 | 0.00 | 92 | 1006.4 |
| 20260507040138 | 15 | 250 | 0.0 | 1.6 | 0.00 | 0.64 | 0.64 | 93 | 1006.1 |
| 20260507035634 | 15 | 267 | 1.6 | 3.2 | 0.00 | 0.64 | 0.64 | 93 | 1006.1 |
| 20260507035130 | 15 | 278 | 0.0 | 0.0 | 0.00 | 0.64 | 0.64 | 94 | 1006.0 |
| 20260507034627 | 15 | 277 | 0.0 | 0.0 | 0.00 | 0.64 | 0.64 | 94 | 1006.1 |
| 20260507034124 | 15 | 277 | 0.0 | 0.0 | 0.18 | 0.64 | 0.64 | 94 | 1006.2 |
| 20260507033623 | 15 | 263 | 0.0 | 0.0 | 0.18 | 0.64 | 0.64 | 94 | 1005.9 |
| 20260507033119 | 15 | 269 | 0.0 | 0.0 | 0.00 | 0.61 | 0.61 | 94 | 1005.6 |
| 20260507032617 | 15 | 283 | 0.0 | 0.0 | 0.00 | 0.61 | 0.61 | 94 | 1005.4 |
| 20260507032113 | 15 | 268 | 0.0 | 0.0 | 0.00 | 0.61 | 0.61 | 94 | 1005.6 |
| 20260507031609 | 15 | 280 | 0.0 | 0.0 | 0.00 | 0.61 | 0.61 | 94 | 1005.6 |
| 20260507031106 | 15 | 277 | 0.0 | 0.0 | 0.00 | 0.61 | 0.61 | 94 | 1005.2 |
| 20260507030603 | 15 | 276 | 1.6 | 4.8 | 0.00 | 0.61 | 0.61 | 94 | 1005.4 |
| 20260507030101 | 15 | 259 | 0.0 | 1.6 | 0.00 | 0.61 | 0.61 | 94 | 1005.5 |
| 20260507025558 | 15 | 280 | 0.0 | 0.0 | 0.00 | 0.61 | 0.61 | 94 | 1005.3 |
| 20260507025055 | 15 | 280 | 0.0 | 0.0 | 0.00 | 0.61 | 0.61 | 94 | 1005.5 |
| 20260507024553 | 15 | 275 | 0.0 | 0.0 | 0.00 | 0.61 | 0.61 | 94 | 1005.5 |
| 20260507024049 | 15 | 286 | 0.0 | 0.0 | 0.00 | 0.61 | 0.61 | 94 | 1005.5 |
| 20260507023545 | 15 | 273 | 0.0 | 0.0 | 0.00 | 0.61 | 0.61 | 94 | 1005.4 |
| 20260507023043 | 15 | 272 | 0.0 | 0.0 | 0.00 | 0.61 | 0.61 | 94 | 1005.5 |
| 20260507022539 | 15 | 282 | 0.0 | 0.0 | 0.00 | 0.61 | 0.61 | 94 | 1005.3 |
| 20260507022035 | 15 | 272 | 0.0 | 0.0 | 0.00 | 0.61 | 0.61 | 94 | 1005.2 |
| 20260507021531 | 15 | 283 | 0.0 | 0.0 | 0.00 | 0.61 | 0.61 | 94 | 1005.3 |
| 20260507021028 | 15 | 285 | 0.0 | 0.0 | 0.00 | 0.61 | 0.61 | 94 | 1005.3 |
| 20260507020525 | 15 | 248 | 0.0 | 0.0 | 0.00 | 0.61 | 0.61 | 94 | 1005.5 |
| 20260507020021 | 15 | 283 | 0.0 | 0.0 | 0.00 | 0.61 | 0.61 | 94 | 1005.5 |
| 20260507015520 | 15 | 279 | 0.0 | 0.0 | 0.00 | 0.61 | 0.61 | 94 | 1005.7 |
| 20260507015017 | 15 | 288 | 0.0 | 0.0 | 0.00 | 0.61 | 0.61 | 94 | 1005.8 |
| 20260507014513 | 15 | 282 | 0.0 | 0.0 | 0.00 | 0.61 | 0.61 | 94 | 1005.6 |
| 20260507014009 | 15 | 279 | 0.0 | 0.0 | 0.00 | 0.61 | 0.61 | 94 | 1005.5 |
| 20260507013506 | 15 | 278 | 0.0 | 0.0 | 0.00 | 0.61 | 0.61 | 94 | 1005.6 |
| 20260507013004 | 15 | 266 | 1.6 | 1.6 | 0.00 | 0.61 | 0.61 | 94 | 1005.7 |
| 20260507012500 | 15 | 237 | 0.0 | 0.0 | 0.00 | 0.61 | 0.61 | 94 | 1005.6 |
| 20260507011957 | 15 | 277 | 1.6 | 3.2 | 0.00 | 0.61 | 0.61 | 94 | 1005.7 |
| 20260507011454 | 15 | 283 | 0.0 | 0.0 | 0.00 | 0.61 | 0.61 | 94 | 1005.9 |
| 20260507010950 | 15 | 273 | 1.6 | 3.2 | 0.00 | 0.61 | 0.61 | 94 | 1005.7 |
| 20260507010444 | 15 | 281 | 0.0 | 0.0 | 0.00 | 0.61 | 0.61 | 94 | 1005.8 |
| 20260507005941 | 15 | 272 | 0.0 | 0.0 | 0.00 | 0.61 | 0.61 | 94 | 1005.8 |
| 20260507005439 | 15 | 261 | 0.0 | 1.6 | 0.00 | 0.61 | 0.61 | 93 | 1005.7 |
| 20260507004935 | 15 | 280 | 0.0 | 0.0 | 0.00 | 0.61 | 0.61 | 93 | 1005.8 |
| 20260507004432 | 15 | 278 | 0.0 | 0.0 | 0.00 | 0.61 | 0.61 | 93 | 1005.7 |
| 20260507003929 | 15 | 278 | 0.0 | 0.0 | 0.00 | 0.61 | 0.61 | 93 | 1005.6 |
| 20260507003424 | 15 | 288 | 0.0 | 0.0 | 0.00 | 0.61 | 0.61 | 93 | 1005.9 |
| 20260507002920 | 15 | 231 | 1.6 | 3.2 | 0.00 | 0.61 | 0.61 | 93 | 1005.8 |
| 20260507002416 | 15 | 252 | 0.0 | 1.6 | 0.00 | 0.61 | 0.61 | 93 | 1005.9 |
| 20260507001913 | 15 | 279 | 0.0 | 0.0 | 0.00 | 0.61 | 0.61 | 92 | 1005.6 |
| 20260507001410 | 15 | 265 | 0.0 | 0.0 | 0.00 | 0.61 | 0.61 | 92 | 1005.6 |
| 20260507000908 | 15 | 278 | 0.0 | 0.0 | 0.00 | 0.61 | 0.61 | 91 | 1005.6 |
| 20260507000405 | 15 | 270 | 0.0 | 1.6 | 0.00 | 0.61 | 0.61 | 91 | 1005.6 |
| 20260506235859 | 15 | 277 | 0.0 | 0.0 | 0.00 | 0.61 | 0.61 | 91 | 1005.6 |
| 20260506235356 | 15 | 279 | 0.0 | 0.0 | 0.13 | 0.61 | 0.61 | 90 | 1005.4 |
| 20260506234852 | 15 | 278 | 0.0 | 0.0 | 0.30 | 0.61 | 0.61 | 90 | 1005.4 |
| 20260506234350 | 15 | 277 | 0.0 | 0.0 | 0.36 | 0.58 | 0.58 | 89 | 1005.5 |
| 20260506233847 | 15 | 235 | 0.0 | 0.0 | 0.48 | 0.56 | 0.56 | 89 | 1005.4 |
| 20260506233343 | 15 | 278 | 0.0 | 0.0 | 0.61 | 0.53 | 0.53 | 88 | 1005.6 |
| 20260506232840 | 15 | 288 | 0.0 | 0.0 | 0.18 | 0.46 | 0.46 | 88 | 1005.6 |
| 20260506232336 | 15 | 274 | 0.0 | 1.6 | 0.00 | 0.43 | 0.43 | 88 | 1005.5 |
| 20260506231832 | 15 | 288 | 1.6 | 4.8 | 0.00 | 0.43 | 0.43 | 88 | 1005.7 |
| 20260506231330 | 15 | 267 | 0.0 | 1.6 | 0.13 | 0.43 | 0.43 | 88 | 1005.8 |
| 20260506230827 | 15 | 178 | 3.2 | 4.8 | 0.13 | 0.43 | 0.43 | 87 | 1005.9 |
| 20260506230324 | 15 | 271 | 0.0 | 0.0 | 0.00 | 0.41 | 0.41 | 87 | 1005.7 |
| 20260506225820 | 15 | 275 | 0.0 | 0.0 | 0.00 | 0.41 | 0.41 | 87 | 1005.9 |
| 20260506225318 | 15 | 253 | 3.2 | 4.8 | 0.00 | 0.41 | 0.41 | 87 | 1005.9 |
| 20260506224814 | 15 | 290 | 0.0 | 1.6 | 0.18 | 0.41 | 0.41 | 87 | 1005.7 |
| 20260506224312 | 15 | 285 | 0.0 | 1.6 | 0.30 | 0.41 | 0.41 | 86 | 1005.7 |
| 20260506223808 | 15 | 214 | 1.6 | 1.6 | 0.13 | 0.38 | 0.38 | 86 | 1005.9 |
| 20260506223304 | 15 | 222 | 0.0 | 0.0 | 0.00 | 0.36 | 0.36 | 86 | 1006.1 |
| 20260506222801 | 15 | 276 | 1.6 | 1.6 | 0.00 | 0.36 | 0.36 | 86 | 1005.8 |
| 20260506222256 | 15 | 250 | 1.6 | 3.2 | 0.00 | 0.36 | 0.36 | 86 | 1005.8 |
| 20260506221754 | 15 | 261 | 1.6 | 1.6 | 0.00 | 0.36 | 0.36 | 86 | 1005.9 |
| 20260506221252 | 15 | 261 | 1.6 | 3.2 | 0.00 | 0.36 | 0.36 | 87 | 1006.1 |
| 20260506220749 | 15 | 283 | 3.2 | 3.2 | 0.00 | 0.36 | 0.36 | 87 | 1006.0 |
| 20260506220244 | 15 | 278 | 0.0 | 0.0 | 0.00 | 0.36 | 0.36 | 87 | 1006.2 |
| 20260506215741 | 15 | 288 | 0.0 | 1.6 | 0.00 | 0.36 | 0.36 | 87 | 1006.0 |
| 20260506215237 | 16 | 247 | 1.6 | 1.6 | 0.00 | 0.36 | 0.36 | 87 | 1006.0 |
| 20260506214733 | 16 | 271 | 0.0 | 0.0 | 0.00 | 0.36 | 0.36 | 87 | 1006.2 |
| 20260506214230 | 16 | 273 | 0.0 | 0.0 | 0.18 | 0.36 | 0.36 | 87 | 1006.4 |
| 20260506213728 | 16 | 278 | 0.0 | 0.0 | 0.18 | 0.36 | 0.36 | 87 | 1006.4 |
| 20260506213225 | 16 | 267 | 0.0 | 0.0 | 0.13 | 0.33 | 0.33 | 87 | 1006.5 |
| 20260506212722 | 16 | 283 | 0.0 | 0.0 | 0.13 | 0.33 | 0.33 | 86 | 1006.6 |
| 20260506212218 | 16 | 278 | 0.0 | 1.6 | 0.18 | 0.30 | 0.30 | 86 | 1006.5 |
| 20260506211714 | 16 | 280 | 0.0 | 0.0 | 0.18 | 0.30 | 0.30 | 86 | 1006.6 |
| 20260506211210 | 16 | 277 | 1.6 | 3.2 | 0.00 | 0.28 | 0.28 | 85 | 1006.5 |
| 20260506210707 | 16 | 276 | 0.0 | 0.0 | 0.13 | 0.28 | 0.28 | 85 | 1006.6 |
| 20260506210204 | 16 | 268 | 3.2 | 3.2 | 0.18 | 0.25 | 0.25 | 84 | 1006.9 |
| 20260506205701 | 16 | 275 | 0.0 | 0.0 | 0.36 | 0.25 | 0.25 | 84 | 1006.8 |
| 20260506205156 | 16 | 261 | 1.6 | 1.6 | 0.18 | 0.23 | 0.23 | 83 | 1006.6 |
| 20260506204654 | 16 | 281 | 0.0 | 0.0 | 0.13 | 0.20 | 0.20 | 83 | 1006.8 |
| 20260506204150 | 16 | 271 | 0.0 | 0.0 | 0.13 | 0.20 | 0.20 | 82 | 1006.7 |
| 20260506203649 | 16 | 261 | 1.6 | 1.6 | 0.30 | 0.18 | 0.18 | 82 | 1006.5 |
| 20260506203145 | 17 | 277 | 0.0 | 0.0 | 0.48 | 0.18 | 0.18 | 81 | 1006.9 |
| 20260506202644 | 17 | 281 | 0.0 | 0.0 | 0.30 | 0.15 | 0.15 | 80 | 1006.6 |
| 20260506202139 | 17 | 272 | 0.0 | 0.0 | 0.13 | 0.10 | 0.10 | 79 | 1006.8 |
| 20260506201636 | 17 | 284 | 0.0 | 0.0 | 0.13 | 0.10 | 0.10 | 79 | 1006.6 |
| 20260506201133 | 17 | 280 | 0.0 | 0.0 | 0.00 | 0.08 | 0.08 | 78 | 1006.6 |
| 20260506200629 | 17 | 281 | 0.0 | 0.0 | 0.00 | 0.08 | 0.08 | 78 | 1006.4 |
| 20260506200126 | 17 | 295 | 0.0 | 0.0 | 0.18 | 0.08 | 0.08 | 77 | 1006.4 |
| 20260506195623 | 17 | 273 | 0.0 | 0.0 | 0.18 | 0.08 | 0.08 | 77 | 1006.6 |
| 20260506195119 | 18 | 276 | 0.0 | 0.0 | 0.00 | 0.05 | 0.05 | 77 | 1006.6 |
| 20260506194617 | 18 | 282 | 0.0 | 0.0 | 0.13 | 0.05 | 0.05 | 76 | 1006.6 |
| 20260506194113 | 18 | 277 | 0.0 | 0.0 | 0.13 | 0.05 | 0.05 | 75 | 1006.7 |
| 20260506193611 | 18 | 276 | 0.0 | 0.0 | 0.00 | 0.03 | 0.03 | 74 | 1007.1 |
| 20260506193108 | 18 | 276 | 0.0 | 0.0 | 0.00 | 0.03 | 0.03 | 73 | 1006.9 |
| 20260506192605 | 18 | 278 | 0.0 | 0.0 | 0.18 | 0.03 | 0.03 | 72 | 1006.7 |
| 20260506192100 | 19 | 278 | 0.0 | 0.0 | 0.00 | 0.00 | 0.00 | 70 | 1006.6 |
| 20260506191557 | 19 | 272 | 0.0 | 0.0 | 0.00 | 0.00 | 0.00 | 69 | 1006.8 |
| 20260506191053 | 19 | 258 | 0.0 | 0.0 | 0.00 | 0.00 | 0.00 | 69 | 1006.7 |
| 20260506190550 | 19 | 278 | 0.0 | 1.6 | 0.00 | 0.00 | 0.00 | 68 | 1006.8 |
| 20260506190048 | 19 | 280 | 0.0 | 0.0 | 0.00 | 0.00 | 0.00 | 67 | 1006.8 |
| 20260506185545 | 20 | 267 | 0.0 | 1.6 | 0.00 | 0.00 | 0.00 | 66 | 1007.0 |
| 20260506185041 | 20 | 271 | 0.0 | 1.6 | 0.00 | 0.00 | 0.00 | 65 | 1006.5 |
| 20260506184539 | 20 | 281 | 0.0 | 0.0 | 0.00 | 0.00 | 0.00 | 65 | 1006.8 |
| 20260506184036 | 20 | 279 | 0.0 | 0.0 | 0.00 | 0.00 | 0.00 | 63 | 1006.9 |
| 20260506183531 | 21 | 256 | 0.0 | 1.6 | 0.00 | 0.00 | 0.00 | 61 | 1007.0 |
| 20260506183029 | 21 | 241 | 3.2 | 3.2 | 0.00 | 0.00 | 0.00 | 57 | 1006.5 |
| 20260506182526 | 21 | 271 | 3.2 | 4.8 | 0.00 | 0.00 | 0.00 | 55 | 1006.6 |
| 20260506182023 | 22 | 286 | 1.6 | 1.6 | 0.00 | 0.00 | 0.00 | 55 | 1006.6 |
| 20260506181521 | 22 | 268 | 0.0 | 1.6 | 0.00 | 0.00 | 0.00 | 55 | 1006.8 |
| 20260506181017 | 22 | 276 | 0.0 | 0.0 | 0.00 | 0.00 | 0.00 | 54 | 1006.8 |
| 20260506180514 | 22 | 274 | 0.0 | 0.0 | 0.00 | 0.00 | 0.00 | 53 | 1006.9 |
| 20260506180011 | 22 | 279 | 0.0 | 0.0 | 0.00 | 0.00 | 0.00 | 53 | 1006.9 |
| 20260506175507 | 22 | 267 | 0.0 | 0.0 | 0.00 | 0.00 | 0.00 | 53 | 1007.1 |
| 20260506175003 | 22 | 272 | 0.0 | 1.6 | 0.00 | 0.00 | 0.00 | 54 | 1007.1 |
| 20260506174502 | 22 | 272 | 0.0 | 1.6 | 0.00 | 0.00 | 0.00 | 54 | 1007.0 |
| 20260506173958 | 23 | 259 | 4.8 | 9.7 | 0.00 | 0.00 | 0.00 | 52 | 1007.1 |
| 20260506173456 | 23 | 276 | 0.0 | 0.0 | 0.00 | 0.00 | 0.00 | 51 | 1007.1 |
| 20260506172952 | 23 | 288 | 1.6 | 3.2 | 0.00 | 0.00 | 0.00 | 52 | 1007.0 |
| 20260506172450 | 22 | 276 | 1.6 | 3.2 | 0.00 | 0.00 | 0.00 | 54 | 1007.3 |
| 20260506171946 | 22 | 252 | 6.4 | 9.7 | 0.00 | 0.00 | 0.00 | 55 | 1007.2 |
| 20260506171443 | 22 | 285 | 1.6 | 3.2 | 0.00 | 0.00 | 0.00 | 55 | 1007.3 |
| 20260506170941 | 22 | 291 | 0.0 | 0.0 | 0.00 | 0.00 | 0.00 | 55 | 1007.5 |
| 20260506170438 | 21 | 279 | 0.0 | 0.0 | 0.00 | 0.00 | 0.00 | 56 | 1007.6 |
| 20260506165936 | 21 | 274 | 3.2 | 8.0 | 0.00 | 0.00 | 0.00 | 56 | 1007.4 |
| 20260506165434 | 21 | 264 | 1.6 | 1.6 | 0.00 | 0.00 | 0.00 | 56 | 1007.7 |
| 20260506164930 | 21 | 274 | 0.0 | 0.0 | 0.00 | 0.00 | 0.00 | 56 | 1007.4 |
| 20260506164427 | 21 | 279 | 0.0 | 0.0 | 0.00 | 0.00 | 0.00 | 55 | 1007.7 |
| 20260506163926 | 21 | 271 | 0.0 | 0.0 | 0.00 | 0.00 | 0.00 | 56 | 1007.7 |
| 20260506163425 | 22 | 229 | 4.8 | 8.0 | 0.00 | 0.00 | 0.00 | 55 | 1007.5 |
| 20260506162920 | 22 | 272 | 0.0 | 3.2 | 0.00 | 0.00 | 0.00 | 54 | 1007.8 |
| 20260506162419 | 22 | 264 | 0.0 | 0.0 | 0.00 | 0.00 | 0.00 | 53 | 1008.0 |
| 20260506161916 | 22 | 237 | 0.0 | 0.0 | 0.00 | 0.00 | 0.00 | 52 | 1007.9 |
| 20260506161414 | 22 | 237 | 0.0 | 1.6 | 0.00 | 0.00 | 0.00 | 52 | 1008.1 |
| 20260506160911 | 22 | 244 | 3.2 | 3.2 | 0.00 | 0.00 | 0.00 | 52 | 1008.3 |
| 20260506160408 | 22 | 275 | 0.0 | 1.6 | 0.00 | 0.00 | 0.00 | 52 | 1008.4 |
| 20260506155906 | 22 | 263 | 0.0 | 0.0 | 0.00 | 0.00 | 0.00 | 53 | 1008.3 |
| 20260506155402 | 22 | 245 | 1.6 | 3.2 | 0.00 | 0.00 | 0.00 | 53 | 1008.7 |
| 20260506153519 | 22 | 267 | 0.0 | 0.0 | 0.00 | 0.00 | 0.00 | 54 | 1008.9 |
| 20260506153017 | 22 | 227 | 4.8 | 4.8 | 0.00 | 0.00 | 0.00 | 54 | 1009.0 |
| 20260506152513 | 22 | 278 | 1.6 | 1.6 | 0.00 | 0.00 | 0.00 | 55 | 1009.0 |
| 20260506152012 | 22 | 260 | 1.6 | 1.6 | 0.00 | 0.00 | 0.00 | 54 | 1009.0 |
| 20260506151509 | 22 | 275 | 3.2 | 4.8 | 0.00 | 0.00 | 0.00 | 54 | 1009.0 |
| 20260506151006 | 22 | 276 | 0.0 | 1.6 | 0.00 | 0.00 | 0.00 | 56 | 1009.1 |
| 20260506150502 | 22 | 278 | 1.6 | 3.2 | 0.00 | 0.00 | 0.00 | 55 | 1009.3 |
| 20260506145959 | 22 | 217 | 3.2 | 3.2 | 0.00 | 0.00 | 0.00 | 55 | 1009.1 |
| 20260506145455 | 22 | 277 | 1.6 | 3.2 | 0.00 | 0.00 | 0.00 | 55 | 1009.3 |
| 20260506144953 | 21 | 196 | 4.8 | 8.0 | 0.00 | 0.00 | 0.00 | 55 | 1009.1 |
| 20260506144450 | 22 | 89 | 4.8 | 11.3 | 0.00 | 0.00 | 0.00 | 54 | 1009.1 |
| 20260506143948 | 21 | 237 | 3.2 | 4.8 | 0.00 | 0.00 | 0.00 | 55 | 1009.2 |
| 20260506143444 | 22 | 278 | 0.0 | 1.6 | 0.00 | 0.00 | 0.00 | 56 | 1008.9 |
| 20260506142943 | 22 | 264 | 0.0 | 1.6 | 0.00 | 0.00 | 0.00 | 57 | 1008.8 |
| 20260506142440 | 21 | 250 | 1.6 | 1.6 | 0.00 | 0.00 | 0.00 | 58 | 1009.0 |
| 20260506141939 | 21 | 300 | 1.6 | 1.6 | 0.00 | 0.00 | 0.00 | 57 | 1009.0 |
| 20260506141436 | 21 | 274 | 1.6 | 1.6 | 0.00 | 0.00 | 0.00 | 58 | 1008.8 |
| 20260506140935 | 21 | 271 | 0.0 | 0.0 | 0.00 | 0.00 | 0.00 | 59 | 1008.7 |
| 20260506140431 | 20 | 256 | 3.2 | 4.8 | 0.00 | 0.00 | 0.00 | 59 | 1008.9 |
| 20260506135928 | 20 | 270 | 1.6 | 1.6 | 0.00 | 0.00 | 0.00 | 60 | 1009.3 |
| 20260506135425 | 20 | 281 | 1.6 | 1.6 | 0.00 | 0.00 | 0.00 | 60 | 1009.0 |
| 20260506134921 | 20 | 267 | 3.2 | 3.2 | 0.00 | 0.00 | 0.00 | 61 | 1009.4 |
| 20260506134417 | 20 | 275 | 1.6 | 1.6 | 0.00 | 0.00 | 0.00 | 61 | 1009.4 |
| 20260506133915 | 20 | 196 | 3.2 | 3.2 | 0.00 | 0.00 | 0.00 | 61 | 1009.5 |
| 20260506133411 | 20 | 289 | 0.0 | 0.0 | 0.00 | 0.00 | 0.00 | 62 | 1009.5 |
| 20260506132908 | 20 | 243 | 3.2 | 4.8 | 0.00 | 0.00 | 0.00 | 61 | 1009.8 |
| 20260506132405 | 20 | 272 | 6.4 | 8.0 | 0.00 | 0.00 | 0.00 | 62 | 1009.4 |
| 20260506131903 | 20 | 273 | 3.2 | 8.0 | 0.00 | 0.00 | 0.00 | 62 | 1009.5 |
| 20260506131359 | 19 | 275 | 0.0 | 0.0 | 0.00 | 0.00 | 0.00 | 63 | 1009.5 |
| 20260506130856 | 19 | 275 | 0.0 | 0.0 | 0.00 | 0.00 | 0.00 | 63 | 1009.5 |
| 20260506130352 | 19 | 278 | 1.6 | 1.6 | 0.00 | 0.00 | 0.00 | 63 | 1009.4 |
| 20260506125850 | 20 | 277 | 0.0 | 0.0 | 0.00 | 0.00 | 0.00 | 63 | 1009.9 |
| 20260506125349 | 19 | 247 | 4.8 | 4.8 | 0.00 | 0.00 | 0.00 | 63 | 1009.5 |
| 20260506124847 | 18 | 280 | 1.6 | 1.6 | 0.00 | 0.00 | 0.00 | 65 | 1009.5 |
| 20260506124343 | 18 | 189 | 4.8 | 4.8 | 0.00 | 0.00 | 0.00 | 65 | 1009.6 |
| 20260506123841 | 18 | 264 | 4.8 | 8.0 | 0.00 | 0.00 | 0.00 | 65 | 1009.7 |
| 20260506123339 | 18 | 262 | 1.6 | 3.2 | 0.00 | 0.00 | 0.00 | 65 | 1009.8 |
| 20260506122836 | 18 | 276 | 0.0 | 0.0 | 0.00 | 0.00 | 0.00 | 66 | 1009.5 |
| 20260506122333 | 18 | 283 | 0.0 | 0.0 | 0.00 | 0.00 | 0.00 | 66 | 1009.7 |
| 20260506121831 | 18 | 259 | 1.6 | 1.6 | 0.00 | 0.00 | 0.00 | 67 | 1009.3 |
| 20260506121328 | 17 | 273 | 1.6 | 1.6 | 0.00 | 0.00 | 0.00 | 67 | 1009.5 |
| 20260506120825 | 17 | 274 | 0.0 | 0.0 | 0.00 | 0.00 | 0.00 | 67 | 1009.6 |
| 20260506120323 | 17 | 259 | 0.0 | 0.0 | 0.00 | 0.00 | 0.00 | 67 | 1009.6 |
| 20260506115820 | 17 | 234 | 1.6 | 3.2 | 0.00 | 0.00 | 0.00 | 68 | 1009.6 |
| 20260506115318 | 17 | 268 | 1.6 | 1.6 | 0.00 | 0.00 | 0.00 | 68 | 1009.7 |
| 20260506114816 | 17 | 283 | 1.6 | 1.6 | 0.00 | 0.00 | 0.00 | 68 | 1009.7 |
| 20260506114313 | 17 | 264 | 1.6 | 1.6 | 0.00 | 0.00 | 0.00 | 68 | 1009.8 |
| 20260506113812 | 17 | 266 | 0.0 | 0.0 | 0.00 | 0.00 | 0.00 | 68 | 1010.0 |
| 20260506113309 | 17 | 276 | 0.0 | 1.6 | 0.00 | 0.00 | 0.00 | 68 | 1010.0 |
| 20260506112805 | 17 | 203 | 4.8 | 9.7 | 0.00 | 0.00 | 0.00 | 68 | 1009.6 |
| 20260506112305 | 17 | 276 | 0.0 | 0.0 | 0.00 | 0.00 | 0.00 | 69 | 1009.9 |
| 20260506111800 | 17 | 269 | 1.6 | 1.6 | 0.00 | 0.00 | 0.00 | 69 | 1009.9 |
| 20260506111258 | 16 | 276 | 0.0 | 0.0 | 0.00 | 0.00 | 0.00 | 70 | 1010.1 |
| 20260506110755 | 16 | 282 | 0.0 | 1.6 | 0.00 | 0.00 | 0.00 | 71 | 1009.9 |
| 20260506110252 | 16 | 272 | 0.0 | 0.0 | 0.00 | 0.00 | 0.00 | 71 | 1010.1 |
| 20260506105749 | 16 | 261 | 4.8 | 4.8 | 0.00 | 0.00 | 0.00 | 71 | 1010.0 |
| 20260506105246 | 16 | 243 | 3.2 | 3.2 | 0.00 | 0.00 | 0.00 | 71 | 1009.9 |
| 20260506104743 | 16 | 258 | 3.2 | 3.2 | 0.00 | 0.00 | 0.00 | 71 | 1009.9 |
| 20260506104241 | 16 | 276 | 0.0 | 0.0 | 0.00 | 0.00 | 0.00 | 71 | 1009.9 |
| 20260506103738 | 16 | 269 | 0.0 | 0.0 | 0.00 | 0.00 | 0.00 | 71 | 1010.0 |
| 20260506103235 | 16 | 275 | 0.0 | 0.0 | 0.00 | 0.00 | 0.00 | 70 | 1009.9 |
| 20260506102733 | 16 | 317 | 1.6 | 4.8 | 0.00 | 0.00 | 0.00 | 71 | 1010.0 |
| 20260506102231 | 16 | 286 | 0.0 | 0.0 | 0.00 | 0.00 | 0.00 | 70 | 1010.0 |
| 20260506101727 | 16 | 260 | 1.6 | 3.2 | 0.00 | 0.00 | 0.00 | 70 | 1009.9 |
| 20260506101224 | 16 | 269 | 0.0 | 1.6 | 0.00 | 0.00 | 0.00 | 71 | 1010.2 |
| 20260506100722 | 16 | 266 | 1.6 | 1.6 | 0.00 | 0.00 | 0.00 | 71 | 1009.9 |
| 20260506100220 | 16 | 271 | 1.6 | 1.6 | 0.00 | 0.00 | 0.00 | 70 | 1009.7 |
| 20260506095718 | 16 | 275 | 0.0 | 0.0 | 0.00 | 0.00 | 0.00 | 71 | 1009.8 |
| 20260506095214 | 16 | 276 | 0.0 | 0.0 | 0.00 | 0.00 | 0.00 | 71 | 1009.7 |
| 20260506094712 | 16 | 288 | 0.0 | 0.0 | 0.00 | 0.00 | 0.00 | 71 | 1009.6 |
| 20260506094209 | 16 | 280 | 0.0 | 0.0 | 0.00 | 0.00 | 0.00 | 70 | 1009.9 |
| 20260506093708 | 16 | 267 | 1.6 | 3.2 | 0.00 | 0.00 | 0.00 | 70 | 1009.9 |
| 20260506093205 | 16 | 280 | 0.0 | 0.0 | 0.00 | 0.00 | 0.00 | 70 | 1009.9 |
| 20260506092702 | 16 | 255 | 1.6 | 4.8 | 0.00 | 0.00 | 0.00 | 70 | 1009.7 |
| 20260506092200 | 16 | 277 | 0.0 | 0.0 | 0.00 | 0.00 | 0.00 | 70 | 1009.8 |
| 20260506091658 | 16 | 282 | 0.0 | 0.0 | 0.00 | 0.00 | 0.00 | 69 | 1009.8 |
| 20260506091155 | 16 | 276 | 0.0 | 0.0 | 0.00 | 0.00 | 0.00 | 69 | 1009.8 |
| 20260506090652 | 16 | 277 | 0.0 | 0.0 | 0.00 | 0.00 | 0.00 | 69 | 1009.8 |
| 20260506090149 | 16 | 279 | 0.0 | 1.6 | 0.00 | 0.00 | 0.00 | 68 | 1009.9 |